Temperature
15 15 15 14 13 13 11 10 10 11 11 11 11 12 13 13 14 14 14 14 14 14 13 13 13 12 12 12 12 12 12 12 12 12 12 13 13 13 13 13 13 13 13 13
15 16 15 14 14 13 13 12 12 12 12 12 13 13 14 14 14 14 14 14 14 14 14 13 13 13 12 12 12 12 12 12 12 12 12 12 12 12 12 12 12 12 12 12
14 15 15 14 14 14 13 13 13 12 13 14 14 14 14 14 14 14 14 14 15 14 14 14 13 13 13 12 12 12 11 11 11 11 12 11 11 12 12 12 12 12 12 12
13 15 14 14 15 15 14 14 14 13 13 14 15 15 15 15 15 15 15 15 15 15 15 14 14 14 13 13 12 12 12 11 11 11 11 11 11 11 11 11 11 11 11 11
13 14 14 15 15 15 14 14 14 14 15 15 15 14 14 15 15 15 15 15 15 15 15 15 14 14 14 13 13 12 12 12 11 11 11 11 11 11 11 11 11 11 11 11
13 14 14 14 15 17 15 14 15 16 15 15 15 12 13 15 15 15 15 15 15 15 15 15 15 14 14 14 13 13 12 12 12 11 11 11 11 11 10 10 10 10 10 11
14 14 14 15 16 16 13 13 16 16 16 16 15 13 15 15 15 15 15 15 15 15 15 15 15 15 14 14 13 13 12 12 12 11 11 11 11 10 10 10 10 10 10 10
12 14 14 16 15 14 14 16 16 16 16 16 16 16 15 15 15 15 15 15 15 15 15 15 15 15 14 14 14 13 12 12 12 11 11 11 11 10 10 10 10 10 10 10
13 14 16 17 17 18 17 17 16 16 16 16 16 15 15 15 15 15 15 15 15 15 15 15 15 15 14 14 14 13 13 12 12 11 11 11 10 10 10 10 10 10 10 10
13 14 16 17 17 17 17 17 17 16 16 16 16 15 15 15 15 15 15 15 15 15 15 15 15 14 14 14 14 14 13 12 12 11 11 11 10 10 10 10 10 10 10 9
14 15 15 16 17 17 17 17 17 16 16 16 15 15 15 15 15 15 15 15 15 15 15 15 15 15 14 14 14 14 13 12 12 11 11 11 10 10 10 10 9 9 9 9
14 16 15 17 17 17 17 16 16 16 16 15 15 15 15 15 15 15 15 15 15 15 15 15 15 15 15 14 14 13 13 12 12 11 11 11 10 10 10 9 9 9 9 8
21 20 19 19 18 17 17 16 16 16 16 16 15 15 15 15 15 15 15 15 15 15 14 14 14 15 14 14 14 13 13 12 12 11 11 11 10 10 10 9 9 8 8 8
21 20 19 19 18 17 17 16 16 16 16 16 15 15 15 15 15 15 15 15 14 14 14 14 14 14 14 14 14 13 13 12 12 11 11 11 11 10 10 9 9 9 8 8
20 20 20 19 18 17 17 16 16 16 16 15 15 15 15 15 15 14 14 14 14 14 14 14 14 14 14 14 14 13 13 12 12 12 11 11 11 10 10 9 9 9 8 8
20 19 19 19 18 17 17 16 16 16 16 15 15 15 15 15 14 14 14 14 14 14 14 14 14 14 14 14 13 13 13 13 12 12 12 11 11 11 10 10 9 9 8 8
20 19 18 18 18 17 17 16 16 16 16 16 15 15 15 15 14 14 14 14 14 14 14 14 14 14 14 13 13 13 13 13 12 12 12 11 11 11 10 10 9 9 8 8
21 21 20 19 18 17 17 17 16 16 16 16 15 15 15 15 15 14 14 14 14 14 13 13 13 14 14 14 13 13 13 13 13 12 12 12 11 11 10 10 10 9 9 8
20 20 19 19 18 18 17 17 16 16 16 16 15 15 15 15 15 14 14 14 14 14 14 13 13 14 14 14 13 13 13 13 13 13 12 12 12 11 11 10 10 10 9 9
20 20 19 19 18 18 17 17 17 16 16 16 16 15 15 15 15 14 14 14 14 14 14 13 14 14 14 14 14 14 14 13 13 13 13 12 12 12 11 11 11 10 10 9
19 19 19 19 18 18 18 17 17 17 16 16 16 16 15 15 15 14 14 14 14 14 14 14 14 14 14 14 14 14 14 14 13 13 13 13 12 12 12 11 11 11 10 10
18 18 18 18 18 18 18 17 17 17 16 16 16 16 15 15 15 14 14 14 14 13 14 14 14 14 14 14 14 14 14 14 13 13 13 13 13 13 12 12 12 11 11 10
17 17 17 17 17 17 17 17 17 17 17 16 16 16 15 15 15 14 14 14 14 13 14 14 14 14 14 14 14 14 14 14 13 13 13 13 13 13 13 12 12 12 11 11
15 16 16 16 16 16 16 17 17 17 17 16 16 16 15 15 15 14 14 14 13 13 14 14 14 14 14 14 13 13 13 13 13 13 13 13 13 13 13 13 12 12 11 11
14 14 15 15 16 16 16 16 16 16 16 16 16 15 15 15 15 15 14 14 13 13 13 13 13 13 13 13 13 13 13 13 13 13 13 13 13 13 13 13 13 12 12 11
13 13 14 14 14 15 15 15 15 15 16 16 15 15 15 15 15 14 14 14 13 13 13 13 13 13 13 13 13 13 13 13 13 12 13 13 13 13 13 13 13 13 12 12
12 12 13 13 13 14 14 14 14 15 15 15 15 15 15 15 15 14 14 14 13 13 13 13 13 13 13 13 13 13 13 13 12 12 12 12 12 12 12 12 13 13 13 12
Wind_Speed
5 5 5 5 4 4 4 5 4 4 4 7 7 6 7 7 8 8 9 9 9 7 6 5 6 6 7 7 7 8 9 10 9 9 9 9 9 9 9 10 10 9 9 9
3 5 6 4 4 4 3 3 3 3 4 6 4 4 5 6 7 8 8 9 9 9 7 6 5 5 6 7 7 7 9 9 9 9 9 9 9 9 9 9 9 9 9 8
3 4 3 2 6 5 4 4 5 4 5 3 1 3 3 4 6 6 7 7 9 8 6 4 3 3 4 5 6 7 7 7 8 8 8 8 8 8 8 8 8 8 8 8
4 4 4 6 5 7 5 5 6 6 5 4 4 2 3 1 3 6 8 8 8 8 6 4 2 2 2 4 5 6 6 6 6 7 7 7 8 8 7 6 6 6 7 7
4 3 2 2 4 6 6 5 6 4 1 5 4 3 5 3 1 3 5 5 5 5 4 3 1 1 2 3 4 5 5 5 5 6 6 7 7 7 5 5 5 5 5 7
4 3 6 8 7 6 5 3 6 4 5 6 5 2 4 5 3 4 6 5 6 7 5 4 1 2 3 1 1 1 2 3 4 5 6 6 6 6 5 5 5 6 7 7
3 4 6 5 7 8 5 8 6 7 8 6 5 6 6 4 2 4 5 6 7 7 7 6 3 2 2 2 3 3 1 3 4 5 5 6 6 6 6 6 7 7 7 7
4 4 7 6 9 9 9 4 8 8 7 6 5 4 3 1 2 5 5 6 7 7 8 7 4 1 1 3 4 2 1 3 4 5 5 5 7 7 7 7 7 7 6 7
8 7 6 8 8 8 7 8 8 7 6 6 5 3 2 1 2 4 5 6 6 6 8 8 5 2 2 4 3 1 3 4 5 6 6 6 6 6 6 6 6 6 6 6
3 6 5 6 5 7 7 8 9 8 7 7 5 4 3 1 1 3 5 5 5 6 8 8 6 4 4 4 2 3 5 5 5 6 6 6 5 5 5 5 5 5 6 6
4 5 3 5 7 8 8 9 8 7 7 7 7 4 4 2 1 2 3 3 4 5 6 6 5 5 6 5 3 5 6 6 5 5 5 5 5 4 4 4 3 3 3 3
9 9 9 11 11 10 11 10 10 9 8 7 6 5 4 3 1 1 1 2 4 6 5 5 4 6 7 5 3 5 5 5 4 4 4 4 4 3 5 3 5 5 5 4
8 8 9 8 12 12 12 12 10 10 9 7 6 5 5 3 1 1 0 2 4 5 4 4 4 6 7 6 2 4 6 5 4 5 5 4 3 3 1 3 4 5 6 7
7 8 5 7 10 12 11 12 10 9 9 8 6 5 4 3 2 1 1 3 3 3 3 3 4 6 8 6 2 4 5 5 5 4 5 4 4 3 2 1 1 3 5 7
8 8 8 8 10 11 10 9 9 9 8 7 7 6 6 5 4 3 3 3 2 4 4 3 4 6 7 6 2 3 4 4 4 3 3 4 4 4 3 3 2 1 3 5
8 7 8 9 12 12 10 10 10 10 9 8 8 7 7 7 5 4 3 2 1 3 3 1 3 5 6 5 2 1 2 5 5 4 3 4 4 4 4 4 3 1 1 2
10 9 9 10 12 11 12 11 11 11 10 9 10 9 8 6 4 3 3 3 1 2 2 1 3 5 5 4 2 1 1 2 4 3 4 4 5 5 5 5 4 2 1 2
13 13 11 13 13 11 11 11 11 11 10 10 9 9 9 8 6 6 6 3 0 1 1 3 3 4 4 4 3 2 2 2 2 3 4 4 5 5 5 5 5 4 3 1
10 10 11 11 12 12 12 11 10 10 10 9 10 10 9 8 7 6 5 4 2 3 4 4 3 3 1 3 3 2 2 2 3 4 4 6 6 5 5 6 5 5 4 3
8 9 11 11 11 10 11 11 10 10 9 10 10 10 9 8 7 7 6 5 5 6 6 4 2 1 1 3 4 2 2 2 3 4 5 5 6 6 6 6 6 6 5 4
6 7 9 10 10 10 11 12 11 11 10 11 11 11 11 9 8 7 6 5 6 6 6 4 2 3 3 4 4 3 3 3 3 4 6 6 6 6 6 7 6 6 6 5
1 3 6 7 8 8 8 10 11 11 11 11 11 10 9 8 8 7 7 7 7 8 6 4 4 6 6 5 3 4 4 4 4 4 5 6 6 7 7 7 7 6 6 6
5 2 1 4 6 7 6 8 10 11 11 12 12 11 10 9 7 7 7 7 6 9 7 6 7 10 10 5 4 5 5 5 5 5 5 6 7 7 7 8 7 7 7 6
7 6 4 2 1 3 5 6 8 8 10 11 12 12 10 8 6 7 7 7 9 10 7 9 12 12 9 4 5 5 5 5 5 5 5 6 6 7 7 7 7 7 7 8
7 7 7 6 2 2 4 5 5 7 8 8 9 10 9 8 8 7 7 8 10 10 7 9 12 12 7 5 5 6 6 6 6 5 5 5 6 7 7 7 7 7 7 7
6 6 4 3 2 2 2 2 3 5 6 7 7 7 8 7 8 7 6 8 10 10 8 7 7 7 6 6 6 6 6 6 6 5 5 5 6 6 6 7 9 8 8 8
6 5 5 5 5 4 3 1 3 4 5 7 7 7 8 8 7 8 8 7 7 7 7 7 7 7 6 6 6 6 6 5 5 5 5 4 5 5 6 8 7 7 7 6
Wind_Direction
151 156 135 129 113 92 99 148 152 236 259 280 300 307 316 327 341 357 360 2 3 7 3 3 11 13 17 17 17 22 31 34 30 29 33 38 41 44 48 54 59 58 59 50
145 157 141 130 150 134 130 160 189 248 267 253 276 315 332 344 356 2 1 358 360 11 20 18 19 21 28 27 22 29 35 32 29 33 35 37 41 46 50 50 52 57 56 51
186 179 132 196 197 181 180 198 192 222 246 248 289 334 331 347 3 358 354 353 354 359 11 21 36 47 46 36 36 39 35 30 28 32 34 32 41 45 46 46 51 53 48 43
139 143 243 253 200 169 177 215 220 239 253 205 198 245 297 304 10 354 348 349 345 343 353 8 51 80 72 55 47 43 35 28 25 33 35 33 38 41 40 42 47 48 42 36
124 172 276 286 192 180 182 233 234 233 239 161 163 41 340 312 326 327 328 327 325 329 333 3 57 168 104 69 50 43 30 24 25 37 42 39 36 32 32 43 41 38 35 33
126 167 234 240 206 167 131 236 238 175 137 143 131 72 282 282 302 325 325 325 331 337 344 355 324 198 134 123 61 28 1 22 36 48 53 48 39 34 33 44 43 44 41 33
178 221 256 245 149 123 159 230 196 160 150 148 169 201 236 263 320 337 330 327 337 347 342 330 314 190 194 241 256 251 298 44 52 57 64 58 48 41 46 51 49 46 45 32
175 209 253 190 142 175 211 175 150 151 155 159 183 203 206 210 354 354 345 336 341 347 339 335 342 176 245 280 272 251 105 72 66 60 66 66 60 48 43 48 50 38 30 21
190 215 237 180 187 197 157 150 158 159 162 157 155 153 153 134 6 353 348 343 344 348 346 350 0 48 359 311 303 145 115 103 95 79 66 62 64 58 47 42 47 36 29 21
220 258 212 193 178 158 159 159 167 162 158 154 155 152 144 154 347 347 345 346 351 2 2 355 357 15 0 340 8 112 123 123 117 100 81 63 56 54 57 45 42 38 30 17
225 240 189 221 199 171 158 153 154 154 156 160 156 154 163 186 291 334 343 339 357 5 356 349 357 4 358 3 48 98 119 127 126 119 111 88 67 50 57 44 46 47 21 5
213 202 180 206 202 175 160 169 168 163 166 167 163 168 167 197 256 318 344 346 358 358 355 349 359 356 353 359 53 114 126 134 140 140 135 126 112 70 29 25 28 38 34 25
197 181 183 192 184 178 172 177 176 175 175 179 179 174 167 188 212 150 32 348 348 343 344 352 1 354 349 350 37 128 144 150 153 156 159 160 158 149 117 348 356 8 13 17
164 138 157 169 179 181 175 177 176 177 182 180 178 175 165 165 170 171 262 281 317 342 354 3 5 351 343 347 43 128 143 153 155 165 172 175 181 182 176 162 357 339 347 2
174 165 170 171 166 171 170 166 170 179 182 181 178 176 173 176 197 231 258 272 329 353 351 0 1 344 342 351 35 140 153 163 166 167 166 162 157 148 141 131 105 28 5 5
179 153 148 152 167 173 170 172 177 186 187 186 188 192 191 191 204 235 261 255 315 322 310 300 332 328 337 354 11 162 193 190 171 165 161 152 143 139 138 137 129 102 54 3
160 174 176 177 180 182 182 182 184 188 190 193 199 198 190 187 199 235 241 244 266 289 233 231 311 326 346 19 18 276 235 215 182 163 170 167 161 160 162 162 167 179 225 268
190 190 183 182 183 186 190 187 186 188 193 200 193 183 182 185 200 218 230 238 29 33 251 267 316 350 30 44 36 356 291 243 202 189 181 178 176 174 172 178 187 195 225 268
192 187 184 185 186 186 189 191 193 195 194 185 179 183 189 195 202 212 212 205 216 257 255 267 326 22 20 6 20 354 322 273 219 205 193 187 180 181 181 185 196 205 211 213
186 190 190 191 189 188 193 195 193 193 190 180 178 182 190 202 202 200 201 212 224 224 229 246 273 249 230 314 342 328 318 291 236 214 203 198 194 195 195 196 199 203 204 204
179 191 194 195 197 197 196 193 190 195 191 180 180 188 196 203 198 187 190 224 250 223 222 241 224 207 235 283 317 310 296 282 253 220 213 211 209 205 203 202 203 203 201 200
102 192 202 200 201 207 205 195 192 192 186 187 192 190 189 197 199 199 210 214 230 219 214 229 226 229 244 273 289 293 287 280 269 239 223 217 210 208 208 206 206 206 203 198
31 10 241 213 207 211 208 200 196 190 187 189 190 189 192 197 191 191 225 231 224 221 210 224 233 242 257 268 273 281 283 280 273 256 234 220 212 207 206 207 207 204 200 200
29 20 359 312 201 189 213 220 208 200 196 195 195 194 189 192 211 218 215 219 209 210 209 227 239 250 261 259 266 274 277 277 274 268 249 229 215 207 204 203 203 203 201 199
22 18 20 28 29 274 250 240 221 213 204 206 209 206 200 194 200 211 205 214 218 215 219 232 241 252 255 253 261 269 272 270 273 272 255 236 219 209 204 201 200 199 199 201
10 3 355 347 323 299 288 247 226 222 209 213 220 217 211 209 210 206 204 212 220 215 214 224 234 245 244 249 259 265 266 274 285 283 265 248 228 214 208 206 204 201 201 202
349 351 351 349 345 342 331 290 250 244 224 216 222 220 213 209 207 208 209 210 211 212 215 221 225 231 239 245 253 257 258 261 267 271 268 252 234 222 216 213 210 207 202 199
Height
1580 1579 1581 1584 1585 1585 1589 1593 1597 1593 1591 1586 1580 1577 1574 1570 1567 1563 1559 1556 1552 1549 1546 1543 1540 1537 1533 1530 1527 1524 1521 1519 1517 1516 1514 1513 1511 1510 1509 1509 1508 1507 1507 1507
1582 1580 1582 1584 1584 1585 1586 1587 1588 1588 1587 1580 1579 1577 1574 1571 1568 1565 1562 1559 1556 1553 1550 1547 1544 1541 1537 1534 1532 1529 1526 1524 1522 1520 1518 1516 1515 1513 1512 1511 1510 1509 1508 1507
1589 1583 1585 1591 1584 1583 1583 1583 1584 1586 1583 1578 1578 1576 1575 1572 1570 1567 1564 1562 1558 1556 1553 1550 1547 1544 1541 1538 1535 1533 1530 1528 1526 1524 1522 1520 1518 1516 1514 1513 1512 1511 1509 1508
1589 1589 1595 1585 1575 1577 1579 1579 1578 1577 1576 1576 1577 1576 1575 1573 1571 1569 1566 1564 1561 1558 1555 1553 1550 1547 1544 1542 1539 1536 1534 1531 1529 1527 1525 1523 1521 1519 1517 1516 1514 1513 1512 1510
1591 1592 1588 1581 1575 1575 1579 1579 1575 1575 1574 1575 1576 1576 1575 1574 1572 1570 1568 1566 1563 1560 1558 1555 1552 1550 1547 1545 1542 1539 1537 1535 1532 1530 1527 1525 1523 1521 1520 1519 1517 1516 1514 1513
1587 1589 1590 1576 1568 1570 1576 1580 1573 1573 1573 1574 1575 1579 1577 1574 1572 1571 1569 1567 1565 1562 1559 1557 1554 1552 1550 1547 1545 1542 1540 1538 1536 1533 1530 1528 1526 1524 1523 1521 1520 1518 1517 1515
1584 1584 1577 1565 1564 1570 1584 1578 1570 1571 1572 1573 1574 1575 1575 1573 1572 1571 1569 1568 1565 1563 1560 1558 1555 1553 1551 1549 1547 1545 1543 1541 1538 1536 1533 1531 1528 1527 1525 1524 1522 1521 1519 1517
1583 1583 1577 1561 1564 1569 1568 1564 1567 1569 1571 1572 1573 1573 1573 1573 1572 1571 1570 1568 1566 1564 1561 1559 1556 1554 1552 1550 1548 1546 1544 1543 1540 1538 1535 1533 1531 1529 1528 1526 1525 1523 1521 1518
1569 1568 1556 1556 1557 1559 1561 1563 1565 1568 1570 1571 1572 1573 1573 1572 1572 1571 1570 1568 1566 1564 1562 1559 1557 1555 1553 1551 1549 1547 1546 1544 1542 1540 1538 1536 1533 1532 1530 1528 1527 1525 1523 1520
1559 1556 1553 1555 1556 1558 1560 1562 1564 1567 1569 1570 1571 1572 1572 1572 1571 1570 1569 1568 1566 1564 1562 1560 1558 1555 1553 1551 1549 1548 1546 1545 1544 1542 1540 1538 1536 1534 1533 1531 1529 1527 1524 1522
1556 1552 1553 1554 1555 1556 1559 1561 1563 1565 1567 1569 1570 1571 1571 1571 1571 1570 1569 1568 1566 1564 1562 1560 1558 1556 1554 1551 1550 1549 1547 1546 1545 1544 1542 1541 1539 1537 1535 1533 1531 1529 1527 1525
1550 1544 1546 1547 1551 1554 1557 1559 1561 1564 1566 1567 1569 1570 1570 1570 1570 1569 1568 1567 1566 1564 1562 1561 1559 1556 1554 1552 1551 1549 1548 1547 1546 1545 1544 1542 1541 1539 1537 1535 1533 1531 1529 1527
1538 1539 1541 1543 1547 1551 1554 1557 1560 1562 1564 1566 1567 1568 1569 1569 1569 1568 1568 1567 1565 1564 1562 1560 1559 1556 1554 1552 1551 1550 1549 1548 1547 1546 1545 1544 1542 1541 1539 1538 1536 1534 1532 1530
1536 1537 1540 1541 1543 1547 1551 1555 1558 1561 1563 1564 1566 1567 1567 1567 1567 1567 1566 1566 1564 1563 1561 1560 1558 1556 1554 1553 1552 1551 1550 1549 1548 1547 1546 1545 1544 1542 1541 1539 1537 1536 1534 1532
1534 1535 1536 1538 1541 1545 1549 1553 1555 1558 1560 1562 1564 1565 1565 1566 1566 1565 1565 1564 1563 1562 1560 1559 1558 1556 1554 1553 1553 1552 1551 1550 1549 1548 1547 1546 1545 1543 1542 1540 1539 1537 1535 1534
1532 1534 1535 1536 1539 1542 1546 1549 1551 1554 1557 1559 1561 1562 1563 1563 1564 1563 1563 1562 1561 1560 1559 1558 1557 1555 1554 1553 1552 1552 1551 1550 1549 1548 1547 1546 1545 1544 1543 1541 1540 1538 1537 1535
1529 1530 1532 1533 1536 1539 1542 1545 1548 1551 1554 1556 1558 1559 1560 1561 1561 1561 1560 1560 1559 1558 1557 1556 1555 1554 1553 1552 1551 1551 1550 1550 1549 1548 1547 1546 1545 1544 1543 1542 1541 1539 1538 1537
1525 1527 1528 1530 1532 1536 1539 1542 1545 1548 1550 1552 1555 1556 1557 1557 1558 1558 1557 1557 1556 1556 1555 1554 1553 1552 1551 1551 1550 1549 1549 1549 1548 1548 1547 1546 1545 1545 1544 1543 1541 1540 1539 1538
1522 1524 1526 1528 1530 1533 1536 1538 1541 1544 1546 1549 1550 1552 1553 1554 1554 1554 1554 1554 1553 1553 1552 1552 1551 1550 1550 1549 1548 1547 1547 1547 1547 1547 1546 1545 1545 1544 1543 1542 1541 1540 1539 1539
1519 1522 1524 1525 1528 1530 1532 1535 1537 1540 1542 1544 1546 1548 1549 1550 1550 1550 1550 1550 1550 1549 1549 1548 1548 1547 1547 1546 1545 1545 1545 1545 1545 1545 1545 1544 1544 1543 1542 1542 1541 1540 1539 1538
1516 1518 1520 1522 1524 1526 1528 1531 1533 1535 1537 1539 1541 1542 1544 1546 1546 1546 1546 1546 1546 1546 1545 1545 1544 1544 1544 1543 1542 1542 1542 1542 1542 1542 1543 1543 1542 1542 1541 1541 1540 1539 1538 1538
1513 1515 1517 1519 1521 1522 1524 1527 1529 1531 1533 1535 1536 1538 1540 1541 1541 1541 1541 1542 1543 1543 1542 1542 1541 1541 1541 1540 1539 1538 1538 1538 1539 1539 1540 1540 1540 1540 1539 1539 1538 1538 1537 1536
1511 1512 1514 1515 1517 1519 1520 1522 1524 1526 1528 1530 1531 1533 1534 1536 1536 1536 1536 1538 1538 1539 1539 1539 1538 1538 1537 1536 1536 1535 1535 1535 1535 1536 1536 1536 1536 1537 1537 1536 1536 1536 1535 1535
1509 1510 1511 1512 1514 1515 1516 1518 1520 1521 1523 1525 1526 1528 1530 1531 1531 1531 1532 1533 1533 1534 1534 1535 1535 1535 1534 1533 1532 1532 1531 1531 1531 1532 1532 1532 1533 1533 1533 1533 1533 1533 1533 1532
1508 1509 1509 1510 1511 1512 1513 1514 1515 1517 1518 1520 1521 1523 1524 1526 1526 1527 1527 1528 1528 1529 1529 1530 1531 1531 1530 1530 1529 1528 1528 1527 1527 1527 1528 1528 1529 1529 1530 1530 1530 1530 1530 1529
1508 1508 1508 1509 1509 1509 1510 1510 1511 1512 1513 1514 1516 1517 1519 1520 1521 1522 1522 1522 1523 1524 1524 1525 1526 1526 1526 1525 1525 1525 1524 1524 1523 1523 1523 1524 1524 1525 1525 1526 1526 1526 1526 1526
1507 1508 1508 1508 1507 1507 1507 1507 1507 1508 1508 1509 1509 1511 1513 1514 1515 1516 1516 1517 1518 1518 1519 1520 1520 1521 1521 1520 1520 1520 1520 1519 1519 1519 1519 1519 1519 1520 1521 1521 1522 1522 1522 1522